Home   Weather   Leverkusen   Past weeks

Flag for Germany Past Weather in Leverkusen, North Rhine-Westphalia, Germany — Yesterday and Last 2 Weeks

Now
63 °F

Passing clouds.


Feels Like: 63 °F
Forecast: 50 / 78 °F
Wind: 3 mph from North

Location: Koeln / Bonn

Current Time: Aug 30, 2016 at 11:21:44 AM

Latest Report: Aug 30, 2016 at 10:50 AM


Visibility: N/A

Pressure: 30.33 "Hg

Humidity: 88%

Dew Point: 59 °F

Location of LeverkusenLocation

Past Weather in Leverkusen — Graph

°F

Leverkusen Temperature Yesterday

Maximum temperature yesterday: 70 °F (at 10:50 AM)
Minimum temperature yesterday: 59 °F (at 5:20 AM)
Average temperature yesterday: 65 °F

High & Low Weather Summary for the Past Weeks

 TemperatureHumidityPressure
High95 °F (Aug 27, 3:50 PM)100% (Aug 16, 2:50 AM)30.36 "Hg (Aug 16, 2:50 AM)
Low48 °F (Aug 16, 6:50 AM)28% (Aug 25, 4:50 PM)29.77 "Hg (Aug 18, 2:20 PM)
Average69 °F70%30.04 "Hg
* Reported Aug 15 10:20 AM — Aug 30 10:20 AM, Leverkusen, Weather by CustomWeather, © 2016

Note: Actual official high and low records may vary slightly from our data, if they occured in-between our weather recording intervals... More about our weather records

Advertising

Leverkusen Weather History for the Previous 24 Hours

Scroll right to see more
 ConditionsComfort  
Time TempWeatherWind HumidityBarometerVisibility
10:20 AM
Tue, Aug 30
61 °FPassing clouds.5 mph88%30.33 "Hg5 mi
9:50 AM59 °FCool.6 mph94%30.30 "HgN/A
9:20 AM57 °FScattered clouds.6 mph94%30.30 "Hg1 mi
8:50 AM55 °FScattered clouds.5 mph100%30.30 "Hg0 mi
8:20 AM54 °FRain. Cloudy.3 mph100%30.30 "HgN/A
7:50 AM50 °FRain. Fog.3 mph100%30.27 "HgN/A
7:20 AM50 °FCool.3 mph100%30.27 "HgN/A
6:50 AM50 °FFog.2 mph100%30.27 "HgN/A
6:20 AM50 °FCool.3 mph100%30.27 "HgN/A
5:50 AM52 °FFog.1 mph100%30.27 "HgN/A
5:20 AM54 °FFog.6 mph100%30.27 "HgN/A
4:50 AM54 °FFog.7 mph100%30.27 "HgN/A
4:20 AM54 °FFog.2 mph100%30.27 "HgN/A
3:50 AM55 °FCool.2 mph94%30.27 "HgN/A
3:20 AM55 °FCool.2 mph94%30.24 "HgN/A
2:50 AM54 °FCool.2 mph100%30.24 "HgN/A
2:20 AM55 °FFog.2 mph94%30.24 "HgN/A
1:50 AM55 °FFog.2 mph100%30.24 "HgN/A
1:20 AM55 °FFog.2 mph100%30.24 "HgN/A
12:50 AM59 °FFog.1 mph94%30.24 "HgN/A
12:20 AM59 °FFog.2 mph94%30.24 "HgN/A
11:50 PM
Mon, Aug 29
59 °FFog.2 mph100%30.24 "HgN/A
11:20 PM61 °FFog.3 mph94%30.24 "HgN/A
10:50 PM61 °FFog.5 mph94%30.21 "HgN/A
10:20 PM61 °FPassing clouds.No wind94%30.21 "HgN/A
9:50 PM63 °FPassing clouds.1 mph88%30.21 "HgN/A
9:20 PM63 °FSunny.2 mph94%30.18 "Hg10 mi
8:50 PM63 °FPartly sunny.1 mph94%30.18 "HgN/A
8:20 PM66 °FScattered clouds.2 mph83%30.15 "HgN/A
7:50 PM66 °FScattered showers. Partly sunny.3 mph83%30.15 "HgN/A
7:20 PM68 °FBroken clouds.5 mph78%30.15 "HgN/A
6:50 PM68 °FPartly sunny.5 mph78%30.15 "HgN/A
6:20 PM68 °FPartly sunny.6 mph78%30.15 "HgN/A
5:50 PM68 °FPartly sunny.3 mph73%30.15 "HgN/A
5:20 PM68 °FPartly sunny.2 mph73%30.15 "HgN/A
4:50 PM68 °FPartly sunny.5 mph73%30.12 "HgN/A
4:20 PM68 °FPartly sunny.2 mph78%30.12 "HgN/A
3:50 PM66 °FBroken clouds.1 mph83%30.12 "HgN/A
3:20 PM66 °FLight rain. Broken clouds.7 mph83%30.12 "HgN/A
2:50 PM66 °FLight rain. Broken clouds.8 mph83%30.12 "HgN/A
2:20 PM64 °FLight rain. Broken clouds.9 mph88%30.12 "HgN/A
1:50 PM68 °FBroken clouds.9 mph78%30.12 "HgN/A
1:20 PM68 °FBroken clouds.12 mph69%30.09 "HgN/A
12:50 PM70 °FBroken clouds.13 mph64%30.09 "HgN/A
12:20 PM70 °FBroken clouds.10 mph64%30.09 "HgN/A
11:50 AM70 °FBroken clouds.10 mph64%30.09 "HgN/A
11:20 AM70 °FBroken clouds.12 mph69%30.09 "HgN/A
Weather by CustomWeather, © 2016

See weather overviewHow to use our weather pages